Powrót do katalogu

STARLINK-30467

AktywnyŁącznośćVLEO
NORAD 57895·PAYLOAD·🇺🇸 United States

Wystrzelony Sep 20, 2023 z Cape Canaveral Space Force Station

Loading…

Następne Przeloty (najbliższe 24 godziny)

TLE

ŚwieżeSource: CelesTrak SupGP

Epoka: Sep 15, 2026, 02:30 UTC

1 57895C 23146E   26258.10465278  .00037234  00000+0  13485-2 0  2585
2 57895  43.0013 324.2625 0001638 262.6269 236.0524 15.27561371    13

Śledź STARLINK-30467 w czasie rzeczywistym z AllMySat

Download on the App Store